Vertical_Velocity
-0 1 -1 0 -0 -0 7 2 1 6 2 -1 -0 -1 -0 3 -3 1 2 -1 7 2 5 5 -5 -7 -1 0 -4 2 -2 0 -0 -1 2 -0 -1 -2 4 1 0 2 0 -3
-1 2 0 1 0 0 1 1 -5 7 6 -5 1 1 -4 2 4 -4 3 2 -10 4 -1 -4 3 1 1 2 0 1 3 3 -3 1 -1 2 -0 0 3 1 -2 -3 -2 -3
-3 2 0 -1 0 2 1 5 -5 -3 5 -1 -2 -5 1 -3 1 4 0 0 -1 -7 -11 0 -5 1 2 0 -0 1 3 -0 -1 -8 -1 -0 -0 -1 1 2 -1 -8 -13 -3
-3 -0 1 3 -2 -0 0 4 0 -3 2 4 1 -0 -6 -4 -3 -3 0 3 -1 -3 -7 -0 -0 3 -3 -2 -3 -2 -1 -4 -1 -3 -1 -1 -2 -4 -2 -7 4 -5 3 -9
-2 -1 1 3 -2 -1 -0 5 -4 -4 -3 -1 -3 -2 0 1 -1 -5 -0 -4 -1 -0 -7 -1 -11 -6 -3 -3 -0 0 0 -3 -1 -1 1 -3 -7 3 1 2 5 -6 1 -31
0 -2 0 -0 2 -2 1 6 1 0 1 -0 0 -1 -2 -0 1 1 -0 -1 3 4 3 4 7 7 2 0 -0 -2 -1 -1 -1 1 -1 -4 -9 4 6 3 6 6 -3 8
3 -1 -1 0 -1 -3 1 1 5 -0 -5 0 -3 -1 -2 2 1 -1 -1 2 3 1 0 -0 1 0 -0 -1 -1 -1 -3 -2 -2 -2 -4 -4 13 -0 -0 -0 1 4 -2 -1
2 1 -1 0 -1 -0 -1 -1 3 2 -1 -2 -3 -2 -1 -1 1 -2 1 -1 -1 -2 -2 -2 -3 -2 -0 1 1 -2 -2 -1 -2 -1 -2 -7 0 -1 1 1 5 1 2 8
-0 2 2 -1 0 -2 0 -4 -3 0 2 4 1 -2 -0 -2 -0 -1 -1 -1 -2 -1 -2 -1 -2 -3 1 -1 -3 -4 -1 1 -1 -0 -1 -2 0 -1 -0 0 -15 -2 -2 -2
-1 2 1 1 -1 -1 -0 1 -2 -2 2 0 -2 -2 -1 -1 -2 -1 -3 -3 -3 -4 -2 -1 -2 -2 -2 -1 -1 -2 -0 1 -4 1 -3 -6 3 0 0 -5 -2 -5 -5 -5
-4 -0 2 0 1 1 -3 -0 1 -1 0 -2 -2 0 -1 -0 -4 -4 -2 -1 -4 -1 -2 -2 -3 -1 1 -3 -2 2 0 1 -3 3 -1 -11 -1 1 -6 -1 0 3 -1 -0
-1 -4 -0 2 -0 -0 1 1 -0 1 -0 -2 -1 -0 1 1 3 2 -0 -6 -1 -4 0 1 -4 -4 -1 -2 -1 2 -7 -3 -4 -8 3 3 -1 5 3 -1 -2 1 5 3
-1 -1 -2 -1 2 0 -1 -1 -1 -0 1 2 -1 -0 0 -1 0 -2 -1 -0 -4 -3 -3 -0 -1 -4 -5 -6 -4 3 -6 -2 -0 -1 -1 -5 10 2 6 4 2 -1 -1 -1
-1 -2 1 -0 -1 1 0 -1 -2 -2 -3 -2 -1 2 1 2 1 1 5 5 2 1 -0 -0 -1 2 -5 -9 -2 2 -5 3 -5 -6 -5 -1 5 6 -4 -2 -5 -4 1 1
-0 -1 -2 -0 1 1 0 -2 -2 -0 -3 0 -0 1 3 1 -1 0 4 2 6 3 1 -1 1 -0 -1 -10 1 -2 1 0 -4 -11 1 -5 -4 -8 -8 -4 2 4 4 1
0 -1 -0 -2 -1 0 1 -1 1 -0 -1 -0 -4 -2 -1 -1 -1 4 -0 -5 -2 -1 0 1 2 0 -5 -9 -7 8 3 1 -0 -3 -2 -5 1 6 1 1 1 -0 -2 -2
2 0 -2 -1 -0 1 -1 -2 -1 2 2 -1 -4 -4 -2 -1 0 2 -0 0 -1 1 2 2 3 -1 -5 -9 -13 8 2 -3 -3 -5 5 5 6 3 1 -3 -4 -4 -4 -3
0 2 -1 -0 -0 -0 1 1 -0 1 1 2 -2 -0 -0 0 -2 0 2 1 3 1 -0 -1 -1 1 -3 -15 7 1 0 0 0 6 7 2 -3 -4 -6 -7 -5 -2 -2 0
-0 1 0 -2 -0 0 -3 3 1 1 -1 -0 -2 -0 -1 0 -0 0 1 1 1 -3 -1 5 3 -7 -16 6 1 6 2 3 2 2 -0 -1 -4 -6 -3 1 3 0 -1 -1
-1 1 -1 -2 -3 3 1 2 3 0 8 -1 -3 2 -0 -1 0 -0 -2 -0 1 -1 0 0 4 -35 7 -1 4 1 5 2 2 -1 0 0 3 -1 -3 -2 -1 -1 0 -2
-2 -1 -2 -2 2 4 3 -0 -1 0 -2 -5 -3 3 4 6 2 -0 0 -1 1 -1 -2 2 -3 -11 -1 0 -0 2 -1 -2 -1 -2 -2 -1 -0 -1 -1 -1 -2 -3 0 2
-2 0 4 3 -1 -1 3 1 -1 -2 -1 -3 0 2 1 1 5 1 -2 -3 0 1 -2 -2 -5 3 1 -1 -1 -1 -0 -0 -0 -3 -3 -4 -3 -0 1 -1 -1 1 -0 -2
3 2 -1 -3 -2 3 1 -5 -4 -6 -5 -2 -0 -2 -1 3 5 1 1 2 3 1 4 -1 3 3 3 1 -0 1 -0 -0 -2 -1 -1 -1 -2 -2 -1 1 0 -2 -3 -2
1 1 -0 -5 -0 1 -4 -4 1 1 3 -2 -1 0 -2 2 -3 2 3 1 -0 1 -3 -5 9 6 4 1 0 0 1 0 -1 -2 -3 -3 -3 -2 -2 -2 -1 -2 -4 -4
9 -6 -3 -1 -4 -3 1 4 -2 3 6 8 -2 -0 2 2 -0 -1 -2 -0 0 -4 -2 2 -3 -3 -3 -1 -0 -1 -1 -1 -1 -3 -3 -3 -2 -2 -3 -4 -3 -1 -2 -0
-2 -2 1 -3 0 5 -3 -1 2 4 3 -0 0 -0 -3 -4 -3 -2 -4 -2 -10 -4 6 5 3 3 4 1 -0 0 1 -1 -2 -3 -2 -2 -1 -2 -2 -2 -1 -2 -2 1
-5 1 1 -3 -1 8 8 -0 2 4 -1 -2 -2 -3 -3 0 -2 -6 -10 -20 0 8 -1 -0 0 0 -3 -2 -1 -2 -2 -3 -5 -3 -0 1 -1 -1 -2 0 -2 1 -0 1
Height
3028 3026 3024 3023 3022 3023 3024 3023 3024 3021 3021 3022 3021 3022 3023 3024 3024 3024 3026 3032 3035 3042 3047 3052 3054 3057 3062 3067 3071 3075 3076 3078 3080 3084 3086 3090 3092 3095 3097 3097 3097 3097 3097 3095
3026 3024 3023 3021 3021 3022 3023 3023 3024 3023 3024 3023 3023 3024 3026 3029 3031 3031 3033 3035 3039 3042 3046 3051 3054 3057 3061 3064 3069 3072 3073 3075 3079 3084 3088 3088 3089 3092 3093 3093 3094 3095 3096 3094
3024 3022 3021 3021 3021 3020 3023 3025 3025 3024 3023 3023 3026 3027 3031 3033 3034 3036 3038 3041 3044 3046 3048 3050 3053 3057 3060 3064 3068 3070 3073 3074 3076 3078 3080 3082 3085 3087 3090 3091 3092 3091 3087 3089
3021 3020 3020 3019 3019 3020 3022 3024 3025 3026 3027 3028 3030 3034 3036 3036 3037 3040 3042 3045 3048 3051 3052 3054 3056 3058 3061 3065 3068 3070 3073 3075 3077 3079 3080 3081 3082 3084 3085 3085 3086 3085 3083 3084
3018 3018 3018 3018 3018 3019 3021 3023 3025 3028 3029 3031 3033 3035 3037 3039 3040 3043 3045 3047 3049 3051 3053 3056 3057 3059 3062 3064 3068 3070 3071 3073 3076 3078 3079 3079 3078 3078 3079 3079 3080 3079 3079 3076
3015 3016 3016 3017 3017 3018 3020 3022 3025 3028 3030 3032 3036 3037 3038 3039 3042 3044 3044 3047 3049 3052 3053 3055 3059 3062 3063 3065 3067 3068 3070 3071 3074 3076 3076 3077 3074 3071 3071 3073 3074 3075 3075 3075
3012 3014 3014 3014 3016 3017 3018 3020 3024 3028 3030 3032 3034 3036 3038 3039 3042 3043 3045 3048 3050 3053 3054 3056 3059 3061 3062 3064 3065 3066 3068 3070 3073 3075 3077 3077 3068 3066 3067 3068 3070 3071 3071 3071
3009 3010 3012 3013 3014 3016 3018 3020 3022 3024 3028 3032 3034 3035 3037 3038 3041 3044 3046 3048 3051 3052 3054 3057 3059 3060 3061 3061 3062 3064 3066 3068 3071 3072 3072 3066 3064 3065 3065 3066 3069 3066 3067 3066
3006 3007 3008 3010 3012 3014 3016 3019 3021 3023 3027 3029 3031 3034 3036 3038 3040 3043 3044 3047 3049 3051 3053 3056 3056 3058 3060 3061 3061 3062 3064 3065 3069 3070 3071 3067 3062 3062 3062 3063 3064 3063 3062 3060
3002 3003 3005 3006 3009 3012 3014 3016 3019 3022 3024 3026 3029 3032 3034 3037 3039 3041 3043 3045 3048 3050 3052 3054 3056 3057 3058 3059 3059 3060 3062 3063 3065 3067 3068 3061 3060 3060 3060 3062 3065 3058 3057 3055
2999 2999 3001 3003 3005 3008 3011 3012 3015 3019 3021 3023 3026 3028 3031 3034 3036 3039 3041 3045 3045 3047 3049 3051 3052 3053 3055 3056 3057 3057 3060 3061 3061 3063 3064 3060 3056 3057 3059 3057 3054 3052 3049 3047
2995 2996 2996 2999 3001 3003 3006 3009 3011 3013 3017 3020 3022 3024 3027 3030 3033 3037 3037 3040 3041 3042 3045 3046 3048 3051 3052 3053 3053 3054 3057 3057 3058 3059 3056 3055 3053 3052 3050 3048 3045 3043 3041 3039
2991 2992 2993 2994 2996 2999 3001 3004 3006 3009 3012 3015 3017 3019 3022 3025 3028 3031 3034 3036 3038 3041 3042 3043 3045 3048 3049 3049 3047 3048 3050 3052 3051 3051 3048 3050 3050 3044 3042 3039 3037 3035 3033 3031
2986 2988 2989 2990 2992 2994 2996 2998 3001 3004 3008 3010 3012 3013 3015 3018 3021 3024 3027 3030 3033 3036 3037 3038 3040 3043 3044 3043 3042 3041 3044 3044 3043 3040 3040 3040 3039 3037 3033 3030 3029 3027 3024 3020
2981 2982 2984 2986 2988 2990 2991 2993 2995 2998 3004 3003 3005 3007 3011 3013 3015 3018 3022 3024 3027 3030 3032 3033 3035 3037 3040 3039 3034 3030 3035 3033 3033 3031 3033 3030 3030 3028 3024 3020 3017 3015 3012 3010
2976 2977 2978 2981 2983 2985 2987 2989 2991 2992 2995 2999 3002 3002 3003 3007 3010 3013 3017 3020 3022 3025 3027 3028 3028 3031 3036 3033 3025 3026 3027 3027 3026 3026 3025 3023 3019 3018 3016 3014 3012 3008 3005 3001
2971 2972 2974 2976 2977 2980 2983 2985 2987 2988 2991 2994 2997 2996 2997 2999 3002 3007 3010 3013 3015 3020 3022 3022 3023 3027 3029 3025 3019 3022 3020 3019 3018 3016 3016 3016 3015 3013 3011 3008 3005 3002 2999 2995
2966 2968 2969 2971 2974 2976 2978 2980 2982 2984 2987 2991 2993 2992 2994 2995 2997 3001 3003 3006 3009 3013 3015 3015 3018 3021 3021 3015 3015 3015 3015 3013 3012 3012 3012 3010 3008 3006 3003 2999 2995 2992 2988 2984
2960 2962 2964 2967 2970 2973 2974 2977 2979 2981 2987 2986 2986 2987 2989 2991 2993 2997 3000 3002 3006 3008 3009 3011 3014 3013 3008 3009 3010 3008 3006 3007 3007 3005 3004 3002 3000 2997 2994 2990 2986 2983 2980 2976
2954 2958 2961 2963 2966 2970 2973 2975 2977 2979 2979 2980 2981 2984 2986 2989 2990 2993 2998 2999 3001 3001 3004 3006 3005 3001 3003 3003 3002 3001 3002 3000 2999 2997 2997 2995 2993 2990 2986 2982 2978 2974 2971 2967
2946 2950 2956 2961 2964 2966 2969 2971 2973 2973 2973 2973 2975 2979 2981 2984 2987 2990 2994 2994 2995 2995 2997 3000 2997 2995 2997 2997 2998 2997 2995 2994 2992 2991 2990 2987 2984 2980 2976 2973 2969 2966 2962 2959
2942 2948 2953 2957 2961 2963 2965 2963 2965 2965 2967 2966 2967 2970 2975 2980 2983 2986 2989 2990 2991 2990 2992 2993 2990 2991 2991 2991 2991 2990 2989 2988 2986 2984 2981 2979 2975 2972 2968 2964 2961 2958 2957 2956
2938 2944 2949 2953 2955 2954 2954 2953 2955 2957 2958 2960 2963 2967 2971 2976 2979 2982 2983 2984 2986 2986 2985 2983 2985 2985 2985 2985 2985 2984 2983 2982 2980 2978 2975 2971 2968 2964 2962 2959 2957 2955 2952 2950
2932 2937 2941 2944 2943 2944 2946 2950 2952 2954 2955 2957 2961 2965 2969 2972 2976 2978 2978 2980 2981 2980 2979 2979 2979 2979 2980 2980 2981 2980 2978 2975 2973 2970 2967 2964 2961 2958 2955 2952 2950 2947 2944 2941
2925 2931 2932 2932 2935 2939 2942 2945 2949 2951 2954 2956 2959 2963 2967 2969 2972 2974 2975 2976 2974 2973 2973 2975 2976 2975 2974 2973 2972 2970 2968 2965 2963 2960 2958 2955 2953 2950 2948 2945 2943 2940 2937 2934
2919 2921 2923 2926 2932 2935 2938 2943 2948 2951 2952 2954 2957 2959 2962 2965 2967 2968 2970 2969 2969 2971 2971 2970 2970 2969 2967 2965 2962 2960 2958 2956 2954 2952 2949 2947 2945 2943 2940 2937 2935 2932 2929 2925
2911 2913 2919 2925 2928 2933 2937 2939 2945 2948 2950 2953 2954 2956 2959 2960 2960 2961 2962 2962 2967 2968 2966 2965 2963 2960 2957 2954 2952 2950 2949 2947 2945 2942 2941 2939 2937 2934 2932 2929 2926 2923 2920 2916